HVN215 VVNB-VVTS

Flight info

Callsign HVN215
Flight time N/A
Altitude 40000
Route NAH3A NAH Q1 DAN/K0893F430 Q1 DOVIN DOVIN5Q
Aircraft A359/H-SDE2E3GHIJ3J4J5LM1ORWXY/LB1D1

Departure

Time 2026-05-04 09:43
Airport Noi Bai International Airport (VVNB)

Arrival

Time N/A
Airport Tan Son Nhat International Airport (VVTS)
Time Latitude Longitude Altitude Speed Heading
2026-05-04 09:37 21.21891 105.79711 55 ft 0 kts 107°
2026-05-04 09:38 21.21890 105.79714 55 ft 3 kts 107°
2026-05-04 09:38 21.21880 105.79749 55 ft 0 kts 107°
2026-05-04 09:38 21.21874 105.79768 52 ft 8 kts 107°
2026-05-04 09:38 21.21847 105.79861 49 ft 18 kts 107°
2026-05-04 09:39 21.21854 105.79966 47 ft 13 kts 43°
2026-05-04 09:39 21.21902 105.79954 51 ft 8 kts 311°
2026-05-04 09:39 21.21930 105.79890 55 ft 11 kts 290°
2026-05-04 09:39 21.21957 105.79799 50 ft 14 kts 288°
2026-05-04 09:40 21.21990 105.79688 54 ft 17 kts 287°
2026-05-04 09:40 21.22028 105.79558 55 ft 19 kts 287°
2026-05-04 09:40 21.22071 105.79412 51 ft 22 kts 288°
2026-05-04 09:40 21.22118 105.79250 54 ft 24 kts 287°
2026-05-04 09:41 21.22166 105.79074 55 ft 26 kts 287°
2026-05-04 09:42 21.22002 105.80256 164 ft 188 kts 107°
2026-05-04 09:43 21.21572 105.81704 956 ft 220 kts 107°
2026-05-04 09:43 21.21077 105.83423 1799 ft 255 kts 105°
2026-05-04 09:43 21.20586 105.85264 2689 ft 259 kts 105°
2026-05-04 09:43 21.20085 105.87134 3650 ft 262 kts 105°
2026-05-04 09:44 21.19576 105.89013 4570 ft 265 kts 105°
2026-05-04 09:44 21.19055 105.90901 5409 ft 269 kts 106°
2026-05-04 09:44 21.18519 105.92841 6292 ft 274 kts 106°
2026-05-04 09:46 21.07912 106.00629 11153 ft 342 kts 174°
2026-05-04 09:46 21.05521 106.00980 11551 ft 359 kts 174°
2026-05-04 09:46 21.03017 106.01355 12185 ft 366 kts 174°
2026-05-04 09:47 21.00470 106.01741 12870 ft 372 kts 174°
2026-05-04 09:47 20.97890 106.02134 13597 ft 376 kts 175°
2026-05-04 09:49 20.79152 106.04998 18171 ft 400 kts 176°
2026-05-04 09:49 20.76380 106.05421 18753 ft 404 kts 176°
2026-05-04 09:49 20.73579 106.05848 19318 ft 408 kts 176°
2026-05-04 09:51 20.56281 106.08494 22570 ft 430 kts 174°
2026-05-04 09:51 20.53317 106.09034 23055 ft 434 kts 173°
2026-05-04 09:51 20.50336 106.09601 23520 ft 437 kts 173°
2026-05-04 09:51 20.47326 106.10170 23984 ft 441 kts 173°
2026-05-04 09:52 20.44294 106.10737 24445 ft 444 kts 173°
2026-05-04 09:52 20.41244 106.11312 24912 ft 447 kts 173°
2026-05-04 09:52 20.40872 106.11390 24970 ft 447 kts 172°
2026-05-04 09:52 20.37864 106.12284 25469 ft 454 kts 162°
2026-05-04 09:53 20.34957 106.13542 25984 ft 459 kts 160°
2026-05-04 09:53 20.32035 106.14956 26518 ft 463 kts 158°
2026-05-04 09:53 20.29113 106.16443 27042 ft 466 kts 158°
2026-05-04 09:53 20.26179 106.17957 27558 ft 470 kts 158°
2026-05-04 09:54 20.23228 106.19476 28056 ft 473 kts 158°
2026-05-04 09:54 20.20261 106.20987 28535 ft 476 kts 158°
2026-05-04 09:54 20.17251 106.22505 29025 ft 479 kts 159°
2026-05-04 09:54 20.14232 106.24017 29485 ft 482 kts 159°
2026-05-04 09:55 20.11172 106.25544 29936 ft 485 kts 159°
2026-05-04 09:55 20.08109 106.27071 30365 ft 488 kts 159°
2026-05-04 09:55 20.05025 106.28607 30745 ft 492 kts 159°
2026-05-04 09:55 20.01917 106.30151 31085 ft 496 kts 159°
2026-05-04 09:56 19.98779 106.31708 31443 ft 499 kts 159°
2026-05-04 09:56 19.95657 106.33254 31797 ft 502 kts 159°
2026-05-04 09:56 19.92471 106.34828 32119 ft 506 kts 159°
2026-05-04 09:56 19.89273 106.36403 32440 ft 509 kts 159°
2026-05-04 09:57 19.86042 106.37986 32736 ft 512 kts 159°
2026-05-04 09:57 19.82798 106.39572 33022 ft 515 kts 159°
2026-05-04 09:57 19.79536 106.41170 33352 ft 517 kts 159°
2026-05-04 09:57 19.76272 106.42769 33747 ft 516 kts 159°
2026-05-04 09:58 19.73008 106.44366 34141 ft 516 kts 159°
2026-05-04 09:58 19.69740 106.45964 34528 ft 515 kts 159°
2026-05-04 09:58 19.66491 106.47552 34927 ft 515 kts 159°
2026-05-04 10:00 19.43841 106.58597 37397 ft 510 kts 159°
2026-05-04 10:00 19.40623 106.60159 37785 ft 507 kts 159°
2026-05-04 10:02 19.18326 106.70985 39779 ft 501 kts 159°
2026-05-04 10:04 18.96045 106.81603 39945 ft 501 kts 159°
2026-05-04 10:04 18.89722 106.84606 39941 ft 501 kts 159°